This is the latest recevied weather packets stored in our database for station/object CT2HRB-13. If no packets are shown the sender has not sent any weather packets the latest 10 day(s).
| Time | Temp. | Humidity | Pressure | Rain* | Wind** | Luminosity | Snow |
|---|---|---|---|---|---|---|---|
| 1778170501 | 18.33° C | 46% | 1009.8 hPa | - | - | - | - |
| 1778170201 | 18.33° C | 47% | 1009.8 hPa | - | - | - | - |
| 1778169902 | 18.33° C | 45% | 1009.6 hPa | - | - | - | - |
| 1778169601 | 18.33° C | 48% | 1009.8 hPa | - | - | - | - |
| 1778169301 | 18.33° C | 47% | 1009.6 hPa | - | - | - | - |
| 1778169002 | 18.33° C | 45% | 1009.7 hPa | - | - | - | - |
| 1778168702 | 18.89° C | 47% | 1009.7 hPa | - | - | - | - |
| 1778168402 | 18.89° C | 46% | 1009.6 hPa | - | - | - | - |
| 1778168102 | 18.89° C | 47% | 1009.9 hPa | - | - | - | - |
| 1778167802 | 18.89° C | 46% | 1009.9 hPa | - | - | - | - |
| 1778167502 | 19.44° C | 42% | 1009.7 hPa | - | - | - | - |
| 1778167201 | 19.44° C | 45% | 1009.8 hPa | - | - | - | - |
| 1778166901 | 19.44° C | 45% | 1009.8 hPa | - | - | - | - |
| 1778166602 | 19.44° C | 47% | 1009.8 hPa | - | - | - | - |
| 1778166302 | 19.44° C | 46% | 1009.8 hPa | - | - | - | - |
| 1778166002 | 19.44° C | 46% | 1009.8 hPa | - | - | - | - |
| 1778165702 | 19.44° C | 47% | 1009.9 hPa | - | - | - | - |
| 1778165401 | 19.44° C | 47% | 1010 hPa | - | - | - | - |
| 1778165102 | 19.44° C | 47% | 1010 hPa | - | - | - | - |
| 1778164801 | 19.44° C | 46% | 1010.1 hPa | - | - | - | - |
| 1778164501 | 19.44° C | 46% | 1010 hPa | - | - | - | - |
| 1778164202 | 19.44° C | 45% | 1010.1 hPa | - | - | - | - |
| 1778163902 | 19.44° C | 44% | 1010.1 hPa | - | - | - | - |
| 1778163601 | 20° C | 44% | 1010.2 hPa | - | - | - | - |
| 1778163302 | 20.56° C | 44% | 1010.2 hPa | - | - | - | - |
* Rain since midnight (hover to see other rain measurements)
** Current wind speed in m/s (hover to see current wind gust speed)